Simultaneous Nadir Overpasses (SNOs) Predictions

Prediction of SNOs between GOES-16 and METOP-B Satellite Orbit:

Table of predicted SNOs for the next 14.0 days since TLE Epoch: 10/15/2022
Index Date Time (GOES-16) GOES-16 Lat,Lon METOP-B Lat,Lon Distance(km) Time Diff (sec)
1 10/17/2022 02:29:39 0.07, -75.19 0.04, -75.25 7.24 80
2 10/19/2022 14:30:33 -0.06, -75.22 -0.16, -74.82 46.23 80
3 10/21/2022 02:49:35 0.06, -75.21 -0.85, -79.42 478.51 80
4 10/22/2022 02:26:15 0.06, -75.22 0.23, -74.42 91.71 80
5 10/23/2022 14:47:47 -0.06, -75.26 0.78, -78.98 423.59 80
6 10/24/2022 14:27:09 -0.06, -75.28 -0.36, -73.99 146.94 80
7 10/26/2022 02:46:09 0.06, -75.27 -0.70, -78.58 376.85 80
8 10/27/2022 02:22:51 0.06, -75.29 0.45, -73.59 193.75 80
9 10/28/2022 14:41:43 -0.05, -75.33 0.56, -78.15 321.29 80
